Weather History for Bettles, AK

Change the Weather History Date:

Monday, March 31, 2014

  Actual Average Record
Temperature  
Mean Temperature 18 °F -  
Max Temperature 32 °F 22 °F 42 °F (1993)
Min Temperature 5 °F -1 °F -30 °F (1952)
Degree Days  
Heating Degree Days 46    
Moisture  
Dew Point 2 °F    
Average Humidity 56    
Maximum Humidity 79    
Minimum Humidity 25    
Precipitation  
Precipitation 0.00 in - - ()
Snow  
Snow 0.00 in - - ()
Snow Depth 28.00 in    
Sea Level Pressure  
Sea Level Pressure 30.25 in    
Wind  
Wind Speed 3 mph (North)    
Max Wind Speed 7 mph    
Max Gust Speed -    
Visibility 10 miles    
Events      
Averages and records for this station are not official NWS values.
T = Trace of Precipitation, MM = Missing Value Source: NWS Daily Summary

Daily Weather History Graph

Daily Weather History Graph

Search for Another Location

Airport:

Trip Planner

Search our weather history database for the weather conditions in past years. The results will help you decide how hot, cold, wet, or windy it might be!

Date:

Astronomy

Mar. 31, 2014 Rise Set
Actual Time 7:21 AM AKDT 9:01 PM AKDT
Civil Twilight 6:25 AM AKDT 9:57 PM AKDT
Nautical Twilight 5:10 AM AKDT 11:13 PM AKDT
Astronomical Twilight 3:12 AM AKDT 1:22 AM AKDT
Moon 7:22 AM AKDT (3/31) 11:18 PM AKDT (3/31)
Length of Visible Light 15h 32m
Length of Day
13h 40m
New Moon, 1% of the Moon is Illuminated
Mar 31
New Moon
Apr 7
First Quarter
Apr 14
Full
Apr 21
Last Quarter
Apr 28
New

Hourly Weather History & Observations

Time (AKDT) Temp. Windchill Dew Point Humidity Pressure Visibility Wind Dir Wind Speed Gust Speed Precip Events Conditions
12:53 AM 1.0 °F - -4.0 °F 79% 30.17 in 10.0 mi Calm Calm - N/A   Clear
1:53 AM -2.0 °F -10.1 °F -7.1 °F 79% 30.19 in 10.0 mi NNW 3.5 mph - N/A   Clear
2:53 AM 1.0 °F -10.3 °F -4.0 °F 79% 30.20 in 10.0 mi NNE 5.8 mph - N/A   Clear
3:53 AM 6.1 °F - -0.9 °F 73% 30.21 in 10.0 mi Calm Calm - N/A   Mostly Cloudy
4:53 AM 6.1 °F -0.9 °F -0.0 °F 76% 30.22 in 10.0 mi NNE 3.5 mph - N/A   Mostly Cloudy
5:53 AM 6.1 °F -2.8 °F -0.9 °F 73% 30.23 in 10.0 mi NNE 4.6 mph - N/A   Scattered Clouds
6:53 AM 5.0 °F -6.9 °F -2.0 °F 73% 30.23 in 10.0 mi North 6.9 mph - N/A   Scattered Clouds
7:53 AM 5.0 °F -4.1 °F -2.0 °F 73% 30.25 in 10.0 mi North 4.6 mph - N/A   Scattered Clouds
8:53 AM 6.1 °F - -0.9 °F 73% 30.26 in 10.0 mi Calm Calm - N/A   Mostly Cloudy
9:53 AM 10.0 °F 1.8 °F -0.0 °F 64% 30.28 in 10.0 mi NNW 4.6 mph - N/A   Mostly Cloudy
10:53 AM 12.9 °F 5.2 °F 1.0 °F 59% 30.28 in 10.0 mi NW 4.6 mph - N/A   Mostly Cloudy
11:53 AM 19.9 °F 13.4 °F 3.9 °F 50% 30.28 in 10.0 mi NNW 4.6 mph - N/A   Scattered Clouds
12:53 PM 23.0 °F 15.8 °F 5.0 °F 46% 30.28 in 10.0 mi North 5.8 mph - N/A   Partly Cloudy
1:53 PM 25.0 °F 20.7 °F 6.1 °F 45% 30.28 in 10.0 mi Variable 3.5 mph - N/A   Partly Cloudy
2:53 PM 28.0 °F - 6.1 °F 39% 30.28 in 10.0 mi Calm Calm - N/A   Partly Cloudy
3:53 PM 30.0 °F 24.1 °F 8.1 °F 40% 30.27 in 10.0 mi NNE 5.8 mph - N/A   Partly Cloudy
4:53 PM 32.0 °F 28.7 °F 9.0 °F 38% 30.26 in 10.0 mi NNE 3.5 mph - N/A   Partly Cloudy
5:53 PM 32.0 °F 27.5 °F 9.0 °F 38% 30.25 in 10.0 mi NNE 4.6 mph - N/A   Partly Cloudy
6:53 PM 30.9 °F 27.5 °F 9.0 °F 40% 30.25 in 10.0 mi NE 3.5 mph - N/A   Partly Cloudy
7:53 PM 28.9 °F 25.2 °F 8.1 °F 41% 30.25 in 10.0 mi NNE 3.5 mph - N/A   Partly Cloudy
8:53 PM 26.1 °F 21.9 °F 3.0 °F 37% 30.25 in 10.0 mi NNW 3.5 mph - N/A   Partly Cloudy
9:53 PM 19.0 °F - 5.0 °F 54% 30.26 in 10.0 mi Calm Calm - N/A   Partly Cloudy
10:53 PM 16.0 °F 8.8 °F 3.9 °F 59% 30.27 in 10.0 mi NNW 4.6 mph - N/A   Clear
11:53 PM 9.0 °F 2.4 °F -0.9 °F 64% 30.27 in 10.0 mi NNW 3.5 mph - N/A   Clear